Regional Weather Roundup
Issued by NWS Binghamton, NY

Current Version | Previous Version | Text Only | Print | Product List | Glossary On
Versions: 1 2 3 4 5 6 7 8 9 10 11 12 13 14 15 16 17 18 19 20 21 22 23 24 25 26 27
000
ASUS41 KBGM 201910
RWRBGM

REGIONAL WEATHER ROUNDUP
NATIONAL WEATHER SERVICE BINGHAMTON NY
300 PM EDT SUN AUG 20 2017

Note: "fair" indicates few or no clouds below 12,000 feet with no
significant weather and/or obstructions to visibility.

* = Station(s) that does not report precipitation, such as rain,
snow, etc, also no thunder or fog.

NYZ009-015>018-022>025-036-037-044>046-055>057-062-202000
...Central New York...

CITY           SKY/WX    TMP DP  RH WIND       PRES   REMARKS
Binghamton     MOSUNNY   73  57  57 NW6       30.14F
Cortland       FAIR      77  61  57 W7        30.12F
Dansville      MOSUNNY   82  56  40 VRB6      30.11S
Elmira         MOSUNNY   82  59  45 MISG      30.09F
Seneca Falls   CLOUDY    75  63  64 NE3       30.09S
Ithaca         MOSUNNY   77  61  57 CALM      30.13S
Hamilton       PTSUNNY   75  55  50 N6        30.12S
Hornell        MOSUNNY   81  54  39 NW8       30.16S
Monticello     MOSUNNY   76  58  53 W10       30.13F
Penn Yan       MOSUNNY   80  56  43 W7        30.11F
Rome           MOSUNNY   76  61  59 VRB6      30.08F
Sidney         MOSUNNY   75  59  57 W7        30.11S
Syracuse       MOSUNNY   80  60  50 W10G21    30.07F
$$

PAZ038>040-043-044-047-048-072-202000
...Northeast Pennsylvania...

CITY           SKY/WX    TMP DP  RH WIND       PRES   REMARKS
Hazleton         N/A     81  61  50 W6        30.18F
Scranton       MOSUNNY   80  61  52 VRB7      30.13F
$$
&&
KEY
WCI = Wind Chill Index
VSB = Visibility
HX  = Heat Index
$$




USA.gov is the U.S. government's official web portal to all federal, state and local government web resources and services.